Temperature
15 15 15 15 15 15 15 14 14 14 13 13 13 13 13 13 13 13 13 13 13 13 13 13 13 13 13 13 13 13 14 14 14 14 14 14 13 13
15 15 15 15 15 14 14 14 14 14 14 13 13 13 13 13 13 13 13 13 13 13 13 13 13 13 13 13 13 13 13 13 13 13 13 13 13 13
15 15 15 15 15 14 14 14 14 14 14 13 13 13 13 13 13 13 13 13 13 13 13 13 13 13 13 13 13 13 13 13 13 13 13 13 13 13
15 15 15 14 14 14 14 14 14 14 14 13 13 13 13 13 13 13 13 13 13 12 12 12 12 12 12 12 12 12 12 12 12 12 12 12 12 12
15 15 15 14 14 14 14 14 14 14 13 13 13 13 13 13 13 13 13 12 12 12 12 12 12 12 12 12 12 12 12 12 12 12 12 12 12 12
15 15 15 14 14 14 14 14 14 13 13 13 13 13 13 12 12 12 12 12 12 12 12 12 12 12 12 12 12 11 11 11 11 11 11 11 11 11
15 14 14 14 14 14 14 13 13 13 13 13 13 13 13 12 12 12 12 12 12 12 12 12 12 12 12 11 11 11 11 11 11 11 11 11 11 11
14 14 14 14 14 14 13 13 13 13 13 13 13 12 12 12 12 12 12 12 12 11 11 12 11 11 11 11 11 11 11 11 11 11 10 10 10 10
14 14 14 14 14 13 13 13 13 13 13 12 12 12 12 12 12 11 11 11 11 11 11 11 11 11 11 11 10 10 10 10 10 10 10 10 10 10
14 14 14 14 13 13 13 13 13 13 12 12 12 12 12 11 11 11 11 11 11 11 10 11 11 11 11 10 10 10 10 10 10 10 9 9 9 9
14 14 14 14 13 13 13 13 13 12 12 12 12 12 11 11 11 11 11 10 10 11 10 10 10 10 10 10 10 10 10 9 9 9 9 9 9 9
14 14 13 13 13 13 13 12 12 12 12 12 12 11 11 11 11 10 10 10 10 9 10 9 9 9 9 9 9 9 9 9 9 9 8 8 8 8
14 13 13 13 13 12 12 12 12 12 11 11 11 11 11 11 10 10 10 9 9 9 9 8 8 8 8 8 9 9 8 8 8 8 8 8 8 7
13 13 13 12 12 12 12 12 11 11 11 11 11 11 11 11 10 10 9 9 9 9 9 8 8 8 7 8 8 8 8 8 8 8 7 7 7 7
13 12 12 12 12 12 12 11 11 11 11 10 10 10 10 10 10 9 9 9 9 9 8 8 8 8 7 7 7 7 7 7 7 7 7 7 7 6
12 12 12 12 12 11 11 11 11 10 10 10 10 10 10 9 9 9 9 9 8 9 8 8 8 7 7 7 7 7 7 7 7 6 6 6 6 6
12 12 11 11 11 11 11 10 10 10 10 9 9 9 9 9 9 8 8 8 8 8 8 8 7 7 7 6 6 7 6 6 6 6 6 6 6 6
11 11 11 11 11 10 10 10 10 9 9 9 9 9 8 8 8 8 8 7 7 7 7 7 7 6 6 6 6 6 6 6 6 5 5 5 5 5
11 11 10 10 10 10 9 9 9 9 9 8 8 8 8 7 7 7 7 7 7 7 7 6 6 5 5 5 6 6 5 5 5 5 5 4 4 4
10 10 10 9 9 9 9 8 8 8 8 8 7 7 7 7 7 6 6 6 6 6 6 6 5 5 5 4 4 5 5 4 4 4 4 4 4 4
9 9 9 9 8 8 8 8 7 7 7 7 7 7 6 6 6 6 6 5 5 5 5 5 5 5 4 4 4 4 4 4 4 3 3 3 3 3
9 8 8 8 8 8 7 7 7 7 6 6 6 6 6 5 5 5 5 5 5 4 4 4 4 4 4 4 3 3 4 4 3 3 3 3 2 2
8 8 7 7 7 7 6 6 6 6 6 5 5 5 5 5 4 4 4 4 4 4 4 4 4 4 4 3 3 3 3 3 3 3 3 3 2 2
Wind_Speed
4 4 4 3 3 3 3 4 4 2 1 2 2 2 3 3 4 5 6 7 7 8 8 9 10 10 10 10 10 10 11 11 11 11 11 11 11 10
3 5 4 3 3 3 3 2 3 4 1 2 2 2 2 3 4 4 4 5 5 6 6 7 8 8 8 8 8 9 9 9 9 9 9 10 10 10
4 4 4 3 3 3 3 3 3 3 3 1 1 1 2 2 3 4 4 4 4 5 5 5 6 7 6 7 6 6 7 7 7 8 8 9 9 9
3 4 3 3 4 3 3 3 2 2 4 2 1 1 1 1 1 2 4 3 3 4 4 5 4 4 5 5 5 5 5 6 6 7 7 8 8 9
3 3 3 4 3 2 3 3 2 2 2 3 1 1 1 1 2 2 3 3 4 4 4 4 4 4 5 5 4 4 5 5 5 6 7 8 8 9
2 3 3 4 3 3 3 2 2 3 2 2 1 0 1 1 1 1 2 3 3 4 4 4 3 4 4 5 5 5 5 5 5 6 6 7 8 9
2 2 2 3 4 4 3 3 3 3 2 2 1 1 1 1 1 1 1 2 3 2 2 3 3 4 5 5 5 5 5 6 6 6 7 8 9 9
3 1 1 2 3 4 4 5 5 4 3 2 1 1 2 2 1 1 0 1 3 2 1 3 2 3 6 7 7 6 5 6 7 7 8 8 9 9
4 2 1 1 2 2 2 2 1 3 5 4 3 3 3 3 2 1 1 2 3 3 0 3 2 3 7 9 9 8 7 8 8 9 9 9 10 10
4 4 3 3 2 3 3 1 1 2 2 2 4 4 4 4 4 3 3 1 2 2 1 2 3 3 5 8 10 10 10 9 10 10 10 10 11 11
2 2 3 4 4 5 4 2 2 3 3 4 5 5 5 4 4 3 1 1 2 3 1 2 3 3 3 4 8 10 11 11 10 11 11 12 12 12
2 2 4 4 5 5 5 4 4 4 2 1 2 3 3 4 4 4 4 2 2 3 2 2 2 2 4 3 4 7 8 10 11 12 12 13 12 9
2 2 3 4 5 5 5 5 5 4 2 2 2 2 2 2 3 5 5 4 4 4 3 3 2 2 3 4 4 4 6 7 9 10 12 13 13 9
3 3 3 4 4 4 4 4 5 2 1 1 2 3 3 4 4 5 8 9 8 8 7 5 3 3 3 4 5 4 4 7 7 6 9 11 12 12
3 4 3 3 3 3 4 4 3 2 2 2 4 5 4 4 3 3 4 6 7 10 10 9 5 4 4 5 5 5 5 5 5 4 5 5 6 6
2 1 1 1 1 2 2 2 2 3 3 4 4 4 3 3 3 3 3 3 3 5 7 10 10 6 5 6 6 7 5 4 4 5 5 5 8 9
2 1 1 1 1 2 2 3 2 2 3 4 4 4 4 4 4 3 3 3 4 5 6 4 7 9 7 6 6 8 7 6 6 6 5 6 6 8
3 1 1 2 3 3 3 3 3 4 4 5 5 5 5 5 5 4 3 4 6 6 6 5 3 3 4 5 9 9 7 7 6 5 4 6 8 7
2 1 2 3 3 3 3 3 4 4 4 4 5 5 5 5 5 5 5 5 6 7 6 5 3 3 6 9 6 9 7 7 5 5 5 6 8 8
1 2 2 3 3 3 3 3 4 4 3 4 4 5 5 5 5 6 6 6 7 7 7 5 5 6 8 9 8 7 10 8 6 7 7 6 7 10
1 2 2 2 3 3 3 3 4 4 4 4 4 5 5 5 6 6 7 9 8 7 8 8 8 10 7 5 7 7 6 12 12 8 6 6 7 6
1 2 2 3 3 3 3 3 4 4 4 4 5 5 5 5 6 7 7 7 7 8 9 9 7 5 4 7 10 10 9 7 10 15 13 11 6 6
2 2 2 2 3 3 3 3 4 4 4 4 5 5 5 6 6 6 7 7 8 8 9 8 6 5 6 8 9 10 10 9 6 6 7 12 17 18
Wind_Direction
92 89 85 72 83 96 120 133 136 129 311 294 313 329 358 26 28 34 35 42 48 53 52 51 49 49 48 47 47 46 45 44 43 41 39 39 38 36
88 87 77 69 71 75 100 104 116 137 162 262 260 284 353 29 26 31 27 33 37 43 46 44 43 42 41 42 41 40 40 39 37 36 35 33 31 28
83 94 90 89 83 72 82 90 94 112 124 292 321 337 18 14 18 22 18 22 19 25 32 33 35 34 35 36 35 34 32 29 27 26 25 22 20 17
110 101 94 97 84 75 84 88 97 113 132 150 297 344 337 318 353 360 8 6 5 5 8 9 9 14 17 19 22 21 18 19 18 15 13 10 6 4
140 130 123 112 100 90 93 95 94 93 102 134 187 295 315 347 14 356 358 355 346 342 346 351 358 4 4 4 2 1 0 1 1 360 358 357 355 352
136 143 144 144 150 138 114 117 111 97 91 98 103 327 310 339 39 355 339 333 325 340 340 343 356 358 353 351 347 346 343 338 339 342 344 344 344 343
114 137 152 151 151 150 143 150 132 114 103 92 86 38 354 346 280 270 292 313 306 308 329 321 323 323 317 319 322 329 333 331 327 328 330 332 334 336
149 147 139 130 154 159 153 152 149 145 152 146 163 193 245 227 215 197 201 2 309 302 333 302 305 292 285 286 290 299 311 319 318 317 320 322 326 330
172 178 172 150 139 136 135 126 161 175 166 161 173 208 215 215 173 163 194 206 243 270 15 285 298 291 285 285 283 286 297 305 308 311 314 314 313 316
187 190 191 205 191 165 156 150 280 272 231 186 194 211 212 199 182 188 200 225 290 296 168 266 288 285 293 285 284 285 289 297 302 306 309 310 311 311
209 202 200 213 220 179 162 186 262 292 291 248 240 241 242 224 177 114 92 49 313 295 241 235 281 296 293 289 290 289 287 293 299 305 308 308 309 308
249 252 235 220 209 185 180 187 223 254 262 324 301 289 274 252 220 190 184 190 244 278 259 218 273 314 310 297 301 294 291 289 291 298 304 306 306 305
231 254 254 227 216 207 193 199 223 221 216 226 259 286 306 295 272 239 213 195 211 244 238 189 226 241 251 289 300 286 278 281 287 292 296 300 299 293
226 238 239 227 223 222 213 225 228 212 189 223 260 274 274 274 270 260 246 235 234 240 241 207 213 226 247 276 285 291 284 276 274 280 284 294 295 294
225 222 227 236 242 250 248 239 223 201 198 233 252 259 254 260 276 288 284 267 264 259 256 241 229 236 230 250 268 274 288 285 266 270 278 278 279 285
239 256 300 303 283 284 291 279 245 217 217 237 254 262 265 269 266 255 265 273 280 283 270 254 242 229 245 253 259 271 266 269 279 270 272 276 274 270
157 82 17 335 305 298 295 285 270 262 256 256 258 269 272 271 271 260 251 252 257 274 285 281 261 248 244 247 260 264 265 267 266 269 273 280 274 266
130 168 241 250 256 263 268 274 267 261 258 256 257 258 262 265 274 272 255 252 262 268 273 276 283 302 304 270 236 254 261 265 267 262 253 272 281 276
136 218 245 255 261 264 266 267 272 273 267 265 266 268 268 270 272 274 270 267 268 269 272 271 263 259 283 291 270 232 251 270 268 268 257 254 270 279
213 245 258 265 269 273 275 277 282 289 281 274 273 275 275 276 278 275 272 269 272 276 279 273 256 249 255 271 278 274 247 248 259 267 271 270 269 276
257 270 275 279 279 278 280 283 283 284 285 283 280 279 278 276 277 277 277 278 273 274 275 274 266 262 261 269 280 278 264 247 246 254 265 276 284 286
279 280 286 289 287 286 287 293 297 295 294 290 288 288 284 280 279 281 282 283 278 274 275 277 278 275 256 261 273 278 280 276 262 259 254 250 257 268
279 283 288 296 298 298 296 299 299 298 296 295 296 294 292 289 286 284 284 283 283 284 285 287 285 271 265 263 271 277 280 283 283 277 269 265 261 263
Height
1571 1571 1571 1571 1571 1571 1571 1571 1571 1570 1570 1570 1569 1568 1567 1566 1566 1564 1563 1562 1561 1560 1559 1558 1557 1555 1554 1553 1552 1551 1550 1548 1547 1546 1545 1543 1542 1541
1571 1571 1571 1571 1571 1571 1571 1571 1571 1570 1570 1570 1569 1568 1568 1567 1566 1565 1564 1563 1562 1561 1559 1558 1557 1556 1555 1554 1552 1551 1550 1549 1547 1546 1544 1543 1542 1540
1572 1572 1571 1571 1571 1571 1571 1571 1570 1570 1569 1569 1569 1568 1567 1566 1566 1565 1564 1563 1562 1561 1560 1559 1557 1556 1555 1554 1552 1551 1550 1548 1547 1545 1544 1542 1541 1539
1572 1572 1572 1571 1571 1571 1571 1571 1570 1570 1569 1568 1568 1568 1567 1566 1565 1565 1564 1563 1562 1561 1560 1558 1557 1556 1555 1553 1552 1550 1549 1547 1546 1544 1543 1541 1539 1538
1572 1572 1572 1571 1571 1571 1571 1570 1570 1569 1569 1567 1567 1566 1566 1565 1565 1564 1564 1563 1562 1560 1559 1558 1557 1555 1554 1553 1551 1549 1548 1546 1545 1543 1541 1539 1537 1535
1572 1572 1572 1571 1571 1571 1570 1570 1570 1569 1568 1567 1566 1565 1564 1564 1564 1563 1562 1562 1560 1559 1558 1557 1556 1554 1553 1551 1550 1548 1547 1545 1543 1541 1539 1537 1535 1533
1572 1572 1571 1571 1571 1570 1570 1569 1569 1568 1567 1566 1565 1564 1563 1562 1562 1562 1561 1560 1559 1558 1557 1556 1554 1553 1551 1550 1548 1546 1545 1543 1541 1539 1537 1535 1532 1529
1571 1571 1571 1571 1570 1570 1569 1569 1568 1567 1566 1565 1564 1563 1563 1562 1561 1560 1559 1558 1557 1557 1555 1554 1552 1551 1549 1548 1546 1544 1542 1540 1538 1536 1534 1531 1528 1525
1571 1570 1570 1570 1569 1569 1568 1568 1567 1566 1566 1565 1563 1563 1562 1561 1560 1559 1558 1557 1555 1554 1552 1550 1550 1548 1547 1545 1544 1542 1540 1538 1535 1533 1531 1528 1525 1521
1569 1569 1569 1568 1568 1567 1567 1566 1566 1565 1564 1563 1562 1561 1561 1560 1558 1557 1556 1554 1553 1552 1550 1548 1546 1545 1543 1542 1540 1538 1536 1534 1532 1530 1527 1525 1521 1518
1568 1568 1567 1567 1566 1566 1565 1564 1564 1563 1563 1562 1561 1560 1559 1557 1556 1555 1553 1551 1549 1549 1548 1545 1543 1540 1539 1538 1536 1535 1533 1531 1529 1526 1524 1521 1518 1514
1566 1566 1565 1565 1565 1564 1563 1562 1561 1561 1560 1559 1558 1557 1556 1555 1553 1552 1551 1549 1547 1545 1544 1542 1540 1537 1534 1533 1532 1530 1529 1527 1525 1522 1520 1517 1514 1511
1562 1563 1563 1562 1562 1561 1560 1560 1559 1558 1557 1556 1554 1553 1552 1551 1550 1549 1547 1546 1544 1542 1541 1539 1536 1534 1532 1528 1527 1526 1524 1522 1520 1517 1515 1512 1510 1507
1559 1559 1559 1559 1559 1558 1557 1556 1556 1554 1553 1552 1550 1549 1548 1547 1546 1545 1543 1542 1540 1538 1537 1535 1532 1530 1527 1524 1521 1520 1519 1517 1514 1512 1509 1507 1505 1502
1556 1556 1556 1555 1555 1554 1553 1552 1551 1550 1549 1547 1546 1545 1544 1543 1542 1540 1538 1537 1535 1533 1532 1530 1528 1525 1523 1520 1516 1514 1512 1510 1509 1506 1503 1501 1499 1496
1552 1552 1552 1551 1550 1550 1549 1548 1547 1546 1545 1543 1542 1540 1539 1538 1536 1535 1533 1531 1528 1527 1526 1525 1522 1520 1517 1514 1512 1508 1507 1504 1502 1500 1497 1494 1492 1490
1549 1548 1547 1547 1546 1545 1544 1544 1543 1541 1540 1538 1537 1535 1534 1532 1530 1529 1527 1525 1522 1520 1518 1518 1516 1514 1511 1509 1505 1502 1500 1498 1496 1493 1490 1486 1485 1483
1545 1544 1543 1542 1542 1541 1540 1539 1538 1536 1535 1533 1532 1530 1528 1526 1524 1523 1521 1519 1516 1514 1512 1511 1509 1506 1504 1501 1500 1496 1494 1491 1489 1487 1484 1480 1476 1475
1541 1540 1539 1539 1538 1537 1535 1534 1532 1531 1530 1528 1526 1524 1523 1521 1519 1517 1515 1513 1510 1508 1506 1505 1503 1500 1496 1492 1491 1491 1487 1484 1481 1479 1476 1473 1469 1467
1536 1536 1535 1535 1534 1532 1531 1529 1528 1526 1525 1523 1521 1519 1517 1515 1513 1511 1508 1506 1504 1501 1499 1498 1496 1494 1491 1487 1483 1481 1481 1478 1474 1471 1468 1465 1462 1459
1533 1532 1532 1531 1529 1528 1526 1525 1523 1521 1519 1517 1515 1514 1512 1509 1507 1505 1502 1500 1498 1495 1492 1490 1489 1488 1484 1481 1476 1472 1472 1470 1468 1465 1461 1457 1453 1450
1530 1529 1528 1526 1525 1523 1522 1520 1518 1516 1514 1512 1510 1508 1506 1503 1501 1498 1496 1494 1491 1488 1486 1483 1482 1480 1477 1473 1468 1464 1462 1461 1459 1457 1454 1451 1447 1442
1526 1525 1523 1522 1521 1519 1517 1515 1513 1511 1509 1506 1504 1502 1499 1497 1495 1492 1490 1487 1485 1482 1479 1476 1473 1471 1468 1465 1461 1457 1454 1452 1449 1446 1444 1443 1441 1437